When you browse on this site, cookies collect data to enhance your experience and personalize the content and advertising you see.
Visit our Privacy Policy to learn more. By continuing to use the site, you agree to this use of cookies and data.
  • In Germany
  • List of Countries
  • For 7 days
  • Water Temperature
  • Satellite Maps
  • Weather Map
  • Weather Widgets
  • user-avatar
    Login

    Hourly Weather Djelfa

    Today, 19 March, Tuesday

    Time Temperature Precipitation Wind Pressure Humidity
    00:00 +6°C° 0 mm 5 mps 663 mmHg 83%
    01:00 +6°C° 0 mm 5 mps 663 mmHg 85%
    02:00 +5°C° 0 mm 4 mps 663 mmHg 87%
    03:00 +5°C° 0 mm 4 mps 663 mmHg 90%
    04:00 +5°C° 0 mm 4 mps 663 mmHg 89%
    05:00 +4°C° 0 mm 4 mps 663 mmHg 89%
    06:00 +3°C° 0 mm 5 mps 663 mmHg 89%
    07:00 +5°C° 0 mm 5 mps 663 mmHg 84%
    08:00 +5°C° 0 mm 5 mps 663 mmHg 79%
    09:00 +5°C° 0 mm 5 mps 663 mmHg 74%
    10:00 +7°C° 0 mm 5 mps 663 mmHg 66%
    11:00 +8°C° 0 mm 5 mps 663 mmHg 58%
    12:00 +9°C° 0 mm 5 mps 663 mmHg 51%
    13:00 +9°C° 0 mm 6 mps 663 mmHg 49%
    14:00 +9°C° 0 mm 6 mps 663 mmHg 48%
    15:00 +9°C° 0 mm 6 mps 663 mmHg 46%
    16:00 +8°C° 0.1 mm 6 mps 663 mmHg 48%
    17:00 +7°C° 0.1 mm 5 mps 663 mmHg 51%
    18:00 +7°C° 0.1 mm 5 mps 663 mmHg 53%
    19:00 +6°C° 0 mm 5 mps 663 mmHg 59%
    20:00 +5°C° 0 mm 5 mps 664 mmHg 65%
    21:00 +5°C° 0 mm 5 mps 664 mmHg 71%
    22:00 +3°C° 0 mm 5 mps 664 mmHg 75%
    23:00 +3°C° 0 mm 4 mps 664 mmHg 80%

    Tomorrow, 20 March, Wednesday

    Time Temperature Precipitation Wind Pressure Humidity
    00:00 +3°C° 0 mm 4 mps 664 mmHg 84%
    01:00 +1°C° 0 mm 4 mps 664 mmHg 86%
    02:00 +1°C° 0 mm 4 mps 664 mmHg 87%
    03:00 +1°C° 0 mm 4 mps 663 mmHg 89%
    04:00 0°C° 0 mm 4 mps 663 mmHg 91%
    05:00 0°C° 0 mm 4 mps 663 mmHg 92%
    06:00 0°C° 0 mm 4 mps 664 mmHg 94%
    07:00 +1°C° 0 mm 5 mps 664 mmHg 88%
    08:00 +2°C° 0 mm 5 mps 664 mmHg 81%
    09:00 +3°C° 0 mm 6 mps 665 mmHg 75%
    10:00 +3°C° 0.1 mm 6 mps 665 mmHg 69%
    11:00 +4°C° 0.1 mm 6 mps 665 mmHg 62%
    12:00 +5°C° 0.1 mm 7 mps 665 mmHg 56%
    13:00 +6°C° 0.1 mm 7 mps 664 mmHg 52%
    14:00 +6°C° 0.1 mm 7 mps 664 mmHg 48%
    15:00 +8°C° 0.1 mm 7 mps 664 mmHg 44%
    16:00 +6°C° 0.2 mm 7 mps 664 mmHg 48%
    17:00 +5°C° 0.2 mm 7 mps 664 mmHg 51%
    18:00 +4°C° 0.2 mm 7 mps 664 mmHg 54%
    19:00 +3°C° 0 mm 7 mps 664 mmHg 59%
    20:00 +3°C° 0 mm 6 mps 664 mmHg 64%
    21:00 +2°C° 0 mm 6 mps 665 mmHg 70%
    22:00 +1°C° 0 mm 6 mps 665 mmHg 75%
    23:00 +1°C° 0 mm 5 mps 664 mmHg 81%

    Day after tomorrow, 21 March, Thursday

    Time Temperature Precipitation Wind Pressure Humidity
    00:00 0°C° 0 mm 5 mps 664 mmHg 86%
    01:00 0°C° 0 mm 5 mps 664 mmHg 88%
    02:00 -1°C° 0 mm 6 mps 664 mmHg 90%
    03:00 -2°C° 0 mm 6 mps 663 mmHg 92%
    04:00 -2°C° 0 mm 6 mps 664 mmHg 91%
    05:00 -2°C° 0 mm 6 mps 664 mmHg 91%
    06:00 -2°C° 0 mm 6 mps 664 mmHg 90%
    07:00 -1°C° 0 mm 6 mps 664 mmHg 85%
    08:00 0°C° 0 mm 7 mps 664 mmHg 80%
    09:00 +2°C° 0 mm 7 mps 664 mmHg 75%
    10:00 +3°C° 0 mm 7 mps 664 mmHg 68%
    11:00 +5°C° 0 mm 7 mps 664 mmHg 61%
    12:00 +6°C° 0 mm 8 mps 664 mmHg 54%
    13:00 +6°C° 0 mm 8 mps 663 mmHg 56%
    14:00 +6°C° 0 mm 9 mps 663 mmHg 57%
    15:00 +6°C° 0 mm 9 mps 662 mmHg 59%
    16:00 +5°C° 0 mm 9 mps 662 mmHg 64%
    17:00 +3°C° 0 mm 9 mps 662 mmHg 69%
    18:00 +3°C° 0 mm 9 mps 662 mmHg 74%
    19:00 +2°C° 0.7 mm 9 mps 662 mmHg 79%
    20:00 +2°C° 0.7 mm 9 mps 662 mmHg 83%
    21:00 +2°C° 0.7 mm 8 mps 662 mmHg 87%
    22:00 +2°C° 0.8 mm 9 mps 662 mmHg 88%
    23:00 +2°C° 0.8 mm 9 mps 662 mmHg 89%

    22 March, Friday

    Time Temperature Precipitation Wind Pressure Humidity
    00:00 +3°C° 0.8 mm 9 mps 662 mmHg 90%
    01:00 +3°C° 0.1 mm 9 mps 662 mmHg 90%
    02:00 +4°C° 0.1 mm 8 mps 662 mmHg 90%
    03:00 +4°C° 0.1 mm 8 mps 662 mmHg 90%
    04:00 +4°C° 0.1 mm 8 mps 662 mmHg 91%
    05:00 +4°C° 0.1 mm 8 mps 663 mmHg 91%
    06:00 +4°C° 0.1 mm 8 mps 663 mmHg 91%
    07:00 +5°C° 0 mm 8 mps 663 mmHg 88%
    08:00 +5°C° 0 mm 8 mps 664 mmHg 84%
    09:00 +6°C° 0 mm 8 mps 664 mmHg 80%
    10:00 +7°C° 0.1 mm 8 mps 664 mmHg 75%
    11:00 +9°C° 0.1 mm 7 mps 664 mmHg 71%
    12:00 +10°C° 0.1 mm 7 mps 664 mmHg 66%
    13:00 +10°C° 0.1 mm 7 mps 664 mmHg 63%
    14:00 +11°C° 0.1 mm 7 mps 664 mmHg 60%
    15:00 +11°C° 0.1 mm 8 mps 664 mmHg 57%
    16:00 +10°C° 0 mm 7 mps 664 mmHg 60%
    17:00 +10°C° 0 mm 7 mps 665 mmHg 64%
    18:00 +9°C° 0 mm 7 mps 665 mmHg 67%
    19:00 +8°C° 0 mm 6 mps 665 mmHg 72%
    20:00 +7°C° 0 mm 5 mps 666 mmHg 76%
    21:00 +6°C° 0 mm 4 mps 666 mmHg 81%
    22:00 +7°C° 0 mm 3 mps 666 mmHg 85%
    23:00 +5°C° 0 mm 3 mps 666 mmHg 89%

    23 March, Saturday

    Time Temperature Precipitation Wind Pressure Humidity
    00:00 +5°C° 0 mm 2 mps 666 mmHg 93%
    01:00 +4°C° 0 mm 3 mps 665 mmHg 94%
    02:00 +4°C° 0 mm 3 mps 665 mmHg 95%
    03:00 +4°C° 0 mm 3 mps 665 mmHg 97%
    04:00 +4°C° 0 mm 3 mps 665 mmHg 94%
    05:00 +5°C° 0 mm 2 mps 666 mmHg 92%
    06:00 +5°C° 0 mm 2 mps 666 mmHg 90%
    07:00 +6°C° 0 mm 2 mps 666 mmHg 82%
    08:00 +7°C° 0 mm 2 mps 667 mmHg 75%
    09:00 +9°C° 0 mm 1 mps 667 mmHg 68%
    10:00 +10°C° 0 mm 1 mps 667 mmHg 61%
    11:00 +12°C° 0 mm 2 mps 667 mmHg 53%
    12:00 +13°C° 0 mm 2 mps 667 mmHg 46%
    13:00 +14°C° 0 mm 2 mps 666 mmHg 43%
    14:00 +13°C° 0 mm 3 mps 666 mmHg 40%
    15:00 +14°C° 0 mm 4 mps 666 mmHg 37%
    16:00 +13°C° 0 mm 4 mps 666 mmHg 39%
    17:00 +13°C° 0 mm 4 mps 666 mmHg 41%
    18:00 +12°C° 0 mm 5 mps 666 mmHg 43%
    19:00 +12°C° 0 mm 5 mps 666 mmHg 46%
    20:00 +10°C° 0 mm 6 mps 666 mmHg 49%
    21:00 +9°C° 0 mm 7 mps 666 mmHg 51%
    22:00 +9°C° 0.1 mm 7 mps 666 mmHg 54%
    23:00 +9°C° 0.1 mm 8 mps 666 mmHg 57%

    24 March, Sunday

    Time Temperature Precipitation Wind Pressure Humidity
    00:00 +7°C° 0.1 mm 8 mps 666 mmHg 59%
    01:00 +8°C° 0.9 mm 7 mps 665 mmHg 64%
    02:00 +7°C° 0.9 mm 6 mps 665 mmHg 68%
    03:00 +7°C° 0.9 mm 5 mps 665 mmHg 72%
    04:00 +7°C° 1.2 mm 5 mps 665 mmHg 73%
    05:00 +6°C° 1.2 mm 5 mps 665 mmHg 74%
    06:00 +6°C° 1.2 mm 4 mps 665 mmHg 75%
    07:00 +6°C° 0.8 mm 5 mps 665 mmHg 74%
    08:00 +7°C° 0.8 mm 6 mps 665 mmHg 72%
    09:00 +7°C° 0.8 mm 6 mps 666 mmHg 71%
    10:00 +7°C° 0.8 mm 6 mps 666 mmHg 70%
    11:00 +7°C° 0.8 mm 6 mps 665 mmHg 70%
    12:00 +8°C° 0.8 mm 5 mps 665 mmHg 70%
    13:00 +8°C° 0.8 mm 5 mps 665 mmHg 69%
    14:00 +8°C° 0.8 mm 4 mps 665 mmHg 69%
    15:00 +9°C° 0.8 mm 3 mps 664 mmHg 69%
    16:00 +9°C° 0.1 mm 3 mps 664 mmHg 69%
    17:00 +9°C° 0.1 mm 3 mps 665 mmHg 70%
    18:00 +9°C° 0.1 mm 3 mps 665 mmHg 71%
    19:00 +8°C° 0 mm 2 mps 665 mmHg 74%
    20:00 +8°C° 0 mm 2 mps 665 mmHg 76%
    21:00 +8°C° 0 mm 1 mps 665 mmHg 79%
    22:00 +8°C° 0 mm 1 mps 665 mmHg 79%
    23:00 +8°C° 0 mm 1 mps 665 mmHg 80%
    Show more